| time (UTC) | temp C | wind direction | speed KPH | gust KPH | rain 1hr cm | rain 24hr cm | rain mn cm | humidity % | barometer mb |
| 20260505060044 | 7 | 236 | 6.4 | 17.7 | 0.28 | 4.50 | 1.07 | 99 | 1013.2 |
| 20260505054644 | 7 | 182 | 9.7 | 20.9 | 0.15 | 4.60 | 0.94 | 99 | 1013.3 |
| 20260505053041 | 7 | 229 | 6.4 | 25.7 | 0.03 | 4.47 | 0.81 | 99 | 1013.2 |
| 20260505051542 | 7 | 226 | 6.4 | 19.3 | 0.03 | 4.45 | 0.79 | 99 | 1013.0 |
| 20260505041548 | 7 | 103 | 6.4 | 22.5 | 0.00 | 4.42 | 0.76 | 98 | 1012.7 |
| 20260505040039 | 7 | 214 | 3.2 | 16.1 | 0.00 | 4.42 | 0.76 | 99 | 1012.6 |
| 20260505034541 | 7 | 199 | 4.8 | 17.7 | 0.05 | 4.42 | 0.76 | 99 | 1012.7 |
| 20260505033037 | 7 | 146 | 11.3 | 24.1 | 0.08 | 4.42 | 0.76 | 98 | 1012.6 |
| 20260505031536 | 7 | 176 | 9.7 | 25.7 | 0.25 | 4.42 | 0.76 | 98 | 1012.6 |
| 20260505030035 | 8 | 223 | 9.7 | 20.9 | 0.25 | 4.42 | 0.76 | 98 | 1012.3 |
| 20260505024542 | 8 | 230 | 4.8 | 20.9 | 0.20 | 4.37 | 0.71 | 98 | 1012.2 |
| 20260505023034 | 7 | 260 | 11.3 | 24.1 | 0.20 | 4.34 | 0.69 | 98 | 1012.4 |
| 20260505021537 | 7 | 240 | 3.2 | 14.5 | 0.05 | 4.17 | 0.51 | 98 | 1012.2 |
| 20260505020031 | 7 | 229 | 8.0 | 19.3 | 0.10 | 4.17 | 0.51 | 98 | 1012.5 |
| 20260505014532 | 7 | 136 | 8.0 | 19.3 | 0.13 | 4.17 | 0.51 | 98 | 1012.6 |
| 20260505013029 | 8 | 207 | 4.8 | 24.1 | 0.20 | 4.14 | 0.48 | 98 | 1012.3 |
| 20260505011524 | 7 | 213 | 11.3 | 24.1 | 0.25 | 4.11 | 0.46 | 98 | 1012.5 |
| 20260505010022 | 7 | 187 | 9.7 | 20.9 | 0.23 | 4.06 | 0.41 | 98 | 1012.5 |
| 20260505004522 | 7 | 200 | 3.2 | 20.9 | 0.20 | 4.04 | 0.38 | 98 | 1012.5 |
| 20260505003018 | 7 | 213 | 3.2 | 17.7 | 0.10 | 3.94 | 0.28 | 98 | 1012.8 |
| 20260505001516 | 7 | 190 | 11.3 | 29.0 | 0.05 | 3.86 | 0.20 | 98 | 1012.9 |
| 20260505000027 | 7 | 184 | 8.0 | 25.7 | 0.03 | 3.84 | 0.18 | 98 | 1013.0 |
| 20260504234509 | 7 | 134 | 4.8 | 16.1 | 0.03 | 3.84 | 0.18 | 98 | 1013.0 |
| 20260504233010 | 7 | 204 | 3.2 | 19.3 | 0.03 | 3.84 | 0.18 | 98 | 1013.2 |
| 20260504231521 | 7 | 207 | 3.2 | 20.9 | 0.08 | 3.81 | 0.15 | 98 | 1013.3 |
| 20260504230003 | 7 | 166 | 6.4 | 19.3 | 0.10 | 3.81 | 0.15 | 98 | 1013.4 |
| 20260504224603 | 7 | 206 | 4.8 | 24.1 | 0.15 | 3.89 | 0.15 | 98 | 1013.6 |
| 20260504223059 | 7 | 179 | 4.8 | 20.9 | 0.15 | 3.89 | 0.15 | 98 | 1013.6 |
| 20260504221602 | 8 | 194 | 6.4 | 16.1 | 0.08 | 3.81 | 0.08 | 98 | 1013.9 |
| 20260504220055 | 7 | 190 | 3.2 | 17.7 | 0.05 | 3.78 | 0.05 | 98 | 1014.1 |
| 20260504214550 | 8 | 159 | 4.8 | 19.3 | 0.03 | 3.73 | 0.00 | 98 | 1014.1 |
| 20260504213048 | 7 | 144 | 3.2 | 9.7 | 0.05 | 3.73 | 0.00 | 98 | 1014.2 |
| 20260504211551 | 7 | 182 | 6.4 | 22.5 | 0.05 | 3.73 | 0.00 | 98 | 1014.5 |
| 20260504204531 | 7 | 236 | 6.4 | 20.9 | 0.10 | 3.71 | 3.71 | 98 | 1014.8 |
| 20260504203034 | 7 | 197 | 8.0 | 25.7 | 0.13 | 3.68 | 3.68 | 98 | 1015.1 |
| 20260504201530 | 7 | 245 | 12.9 | 25.7 | 0.20 | 3.68 | 3.68 | 98 | 1014.9 |
| 20260504200029 | 7 | 223 | 3.2 | 12.9 | 0.13 | 3.61 | 3.61 | 97 | 1015.0 |
| 20260504194542 | 7 | 190 | 9.7 | 27.4 | 0.15 | 3.63 | 3.61 | 98 | 1015.1 |
| 20260504193030 | 7 | 230 | 3.2 | 12.9 | 0.08 | 3.56 | 3.53 | 97 | 1015.1 |
| 20260504191532 | 7 | 80 | 4.8 | 12.9 | 0.03 | 3.51 | 3.48 | 97 | 1015.0 |
| 20260504190031 | 7 | 204 | 1.6 | 12.9 | 0.03 | 3.51 | 3.48 | 98 | 1015.2 |
| 20260504184533 | 7 | 226 | 8.0 | 19.3 | 0.00 | 3.61 | 3.45 | 97 | 1015.2 |
| 20260504183024 | 7 | 196 | 6.4 | 16.1 | 0.00 | 3.61 | 3.45 | 97 | 1015.1 |
| 20260504181523 | 8 | 328 | 9.7 | 29.0 | 0.00 | 3.61 | 3.45 | 98 | 1015.0 |
| 20260504180022 | 8 | 219 | 6.4 | 25.7 | 0.13 | 3.61 | 3.45 | 98 | 1014.9 |
| 20260504174521 | 8 | 158 | 1.6 | 14.5 | 0.20 | 4.14 | 3.45 | 98 | 1014.8 |
| 20260504173021 | 7 | 223 | 12.9 | 24.1 | 0.20 | 4.14 | 3.45 | 97 | 1014.7 |
| 20260504171518 | 8 | 266 | 8.0 | 30.6 | 0.20 | 4.14 | 3.45 | 97 | 1014.6 |
| 20260504120114 | 8 | 223 | 12.9 | 27.4 | 0.08 | 3.05 | 1.98 | 97 | 1013.2 |
| 20260504081533 | 7 | 163 | 6.4 | 22.5 | 0.15 | 3.00 | 1.45 | 96 | 1014.2 |